Location: Mountain Grove
(34.0887°N, 86.6172°W)
Time: 20:48:27
(UTC+00:00)

Cosmos 2123 Rocket - Pass Details

Date: 14 July 2020
Orbit: 960 x 993 km, 82.9° (Epoch: 08 August)

Event Time Altitude Azimuth Distance (km) Brightness Sun altitude
Rises 06:00:47 0° 353° (N) 3,651 8.0 -34.3°
Reaches altitude 10° 06:03:17 10° 353° (N) 2,700 7.1 -34.3°
Enters shadow 06:08:02 56° 347° (NNW) 1,133 4.5 -34.2°
